Regional Weather Roundup
Issued by NWS

Home | Current Version | Previous Version | Text Only | Print | Product List | Glossary On
Versions: 1 2 3 4 5 6 7 8 9 10 11 12 13 14 15 16 17 18 19 20 21 22 23 24 25 26 27 28 29 30 31 32 33 34 35 36 37 38 39 40 41 42 43 44 45 46 47 48 49 50
000
ASUS44 KMEG 291710
RWRTN
TENNESSEE HOURLY STATE WEATHER ROUNDUP
NATIONAL WEATHER SERVICE MEMPHIS TN
1200 PM CDT FRI APR 29 2016

TNZ002-004-019-021-049-052-054-088>092-291800-
WEST TENNESSEE

CITY           SKY/WX    TMP DP  RH WIND       PRES   REMARKS
MEMPHIS INTL   TSTM      65  60  84 E15       29.91F
NWS MEMPHIS      N/A     63 N/A N/A MISG        N/A
JACKSON        CLOUDY    67  57  70 NW5       30.01R THUNDER
DYERSBURG      CLOUDY    63  55  77 NE25      30.01F THUNDER
UNION CITY     SUNNY     63  57  82 NE3       30.01F
LEXINGTON      SUNNY     72  59  64 NE6       29.97F
$$

TNZ008-025-027-028-033-062-065-066-291800-
NORTH MIDDLE TENNESSEE

CITY           SKY/WX    TMP DP  RH WIND       PRES   REMARKS
NASHVILLE      CLOUDY    78  51  38 SW5       30.03R
CLARKSVILLE    PTSUNNY   70  56  61 NE6       30.04R
SMYRNA         CLOUDY    80  52  37 S5        30.03R
COOKEVILLE     SUNNY     81  52  36 CALM      30.02R
CROSSVILLE     MOSUNNY   77  41  27 N6        30.07R
$$

TNZ061-075-076-078-094-096-097-291800-
SOUTH MIDDLE TENNESSEE

CITY           SKY/WX    TMP DP  RH WIND       PRES   REMARKS
FAYETTEVILLE   SUNNY     77  54  44 VRB5      30.02F
TULLAHOMA      SUNNY     79  41  25 CALM      30.03F
WINCHESTER     SUNNY     81  48  32 SE8       30.02F
MCMINNVILLE    SUNNY     81  52  36 E3G46     30.03S
COLUMBIA       SUNNY     79  55  44 SE6       29.99F
SHELBYVILLE    SUNNY     81  54  39 SE5       30.03S
$$

TNZ017-018-042-046-047-291800-
NORTHEAST TENNESSEE

CITY           SKY/WX    TMP DP  RH WIND       PRES   REMARKS
TRI CITIES     MOSUNNY   75  49  39 VRB5      30.04F
$$

TNZ012-013-036-069-073-074-291800-
CENTRAL EAST TENNESSEE

CITY           SKY/WX    TMP DP  RH WIND       PRES   REMARKS
KNOXVILLE      MOSUNNY   79  47  32 E3        30.01F
OAK RIDGE      SUNNY     79  47  32 VRB5      30.03F
MORRISTOWN     SUNNY     75  48  38 VRB3      30.03F
$$

TNZ083-085-099-291800-
SOUTHEAST TENNESSEE

CITY           SKY/WX    TMP DP  RH WIND       PRES   REMARKS
CHATTANOOGA    CLOUDY    82  48  30 N3        30.02F
$$

SKY/WX REPORTED AS FAIR MEANS FEW OR NO CLOUDS BELOW
12 THOUSAND FEET.




USA.gov is the U.S. government's official web portal to all federal, state and local government web resources and services.